Terug naar catalogus

ONEWEB-0338

ActiefCommunicatiePO
NORAD 49204·PAYLOAD·🇬🇧 United Kingdom

Gelanceerd Sep 14, 2021 vanaf Baikonur Cosmodrome

Loading…

Volgende Passages (komende 24 uur)

TLE

VersSource: CelesTrak SupGP

Epoch: Sep 14, 2026, 21:31 UTC

1 49204C 21083U   26257.89702963  .00002048  00000+0  50424-2 0  2576
2 49204  87.9145 256.5508 0002063  79.7488 320.1989 13.20770295    19

Volg ONEWEB-0338 in realtime met AllMySat

Download on the App Store